Location: Lower Kingswood
(51.2667°N, 0.2167°W)
Time: 05:29:00
(UTC+00:00)

Cosmos 2112 Rocket - Pass Details

Date: 26 September 2023
Orbit: 755 x 786 km, 74.0° (Epoch: 29 November)

Event Time Altitude Azimuth Distance (km) Brightness Sun altitude
Rises 03:43:15 0° 331° (NNW) 3,285 7.2 -20.5°
Reaches altitude 10° 03:45:43 10° 326° (NW) 2,355 6.4 -20.1°
Maximum altitude 03:50:48 46° 254° (WSW) 1,056 4.2 -19.4°
Drops below altitude 10° 03:55:51 10° 183° (S) 2,340 6.3 -18.7°
Sets 03:58:19 0° 177° (S) 3,262 7.1 -18.3°
